Temp
15 15 15 15 14 14 14 13 12 12 11 10 9 8 8 8 7 6 7 7 7 8 8 8 7 7 7 6 4 2 1 1 2 3 4 2 2 1 1 0 -1 -1 -2
16 15 16 16 15 15 15 15 13 12 12 11 10 8 8 7 7 6 6 7 7 7 7 7 7 7 7 6 3 2 1 -2 1 3 3 2 1 1 0 -1 -2 -2 -2
15 14 15 15 15 16 15 15 13 12 12 9 9 8 8 7 7 6 6 7 7 7 7 6 7 7 6 6 3 2 -0 -1 0 2 3 2 1 -0 -1 -1 -2 -3 -3
14 14 13 14 14 14 13 13 12 11 11 9 8 7 7 6 6 5 5 6 6 6 6 6 5 5 4 3 1 0 -2 -3 -1 0 1 0 -0 -1 -2 -2 -3 -3 -3
12 12 12 12 12 12 12 12 11 10 10 8 7 7 6 5 4 5 5 5 6 6 6 5 4 3 2 1 1 -2 -2 -3 -0 0 -0 -1 -1 -2 -2 -3 -3 -4 -4
11 11 10 10 10 10 10 10 9 9 8 7 6 5 5 4 3 4 4 5 5 5 5 4 4 2 1 -0 -1 -3 -1 -0 0 -0 -1 -1 -2 -3 -4 -5 -5 -5 -5
10 10 10 10 10 9 8 8 8 7 6 6 5 4 4 3 3 3 4 4 4 4 4 3 2 1 -1 -2 -4 -3 -2 -2 -2 -2 -3 -3 -4 -4 -6 -7 -7 -7 -6
10 10 9 9 10 9 8 7 5 5 4 4 3 3 2 3 3 3 3 3 3 2 2 1 -0 -1 -2 -3 -5 -3 -3 -2 -3 -3 -3 -3 -3 -6 -7 -6 -6 -6 -7
10 10 9 9 8 8 8 7 6 4 3 2 2 1 1 2 2 2 2 2 2 1 -0 -2 -3 -3 -3 -5 -5 -3 -3 -3 -3 -3 -3 -4 -4 -5 -6 -7 -6 -7 -8
8 8 9 9 8 7 7 6 5 3 2 0 -1 -0 0 1 1 1 0 0 -1 -1 -2 -3 -5 -5 -6 -5 -4 -4 -3 -3 -3 -4 -4 -4 -5 -6 -7 -7 -7 -8 -8
6 7 7 7 6 5 5 4 4 2 -0 -1 -1 -1 0 0 -0 -0 -2 -2 -2 -3 -4 -6 -6 -6 -6 -5 -4 -4 -4 -4 -4 -5 -5 -5 -5 -6 -7 -7 -8 -8 -9
6 5 5 5 4 4 3 3 2 0 -2 -2 -2 -1 -1 -1 -1 -2 -3 -3 -4 -5 -6 -6 -6 -7 -7 -5 -4 -5 -5 -5 -5 -5 -5 -5 -6 -6 -7 -8 -8 -9 -9
4 4 3 2 2 1 1 1 1 -2 -3 -2 -3 -3 -3 -3 -4 -5 -6 -6 -7 -7 -7 -6 -6 -7 -7 -6 -5 -5 -6 -6 -6 -6 -6 -6 -7 -8 -8 -9 -9 -10 -10
2 3 2 1 -1 -1 -1 -2 -3 -4 -3 -3 -3 -3 -3 -4 -4 -5 -7 -7 -7 -7 -7 -7 -7 -7 -7 -7 -6 -6 -6 -6 -6 -7 -7 -7 -8 -8 -9 -9 -10 -10 -11
-1 -0 -0 -1 -2 -3 -4 -4 -4 -4 -4 -4 -4 -4 -4 -4 -5 -6 -7 -7 -7 -7 -7 -7 -7 -7 -7 -7 -7 -6 -7 -7 -7 -7 -7 -8 -9 -9 -9 -10 -11 -11 -12
-3 -3 -3 -2 -3 -4 -4 -4 -5 -5 -5 -4 -4 -4 -4 -4 -4 -5 -6 -7 -7 -6 -7 -7 -7 -7 -7 -7 -7 -7 -7 -7 -7 -8 -8 -9 -10 -10 -10 -11 -11 -12 -12
-5 -5 -5 -5 -5 -5 -5 -5 -5 -5 -6 -6 -5 -5 -5 -5 -5 -6 -7 -7 -7 -7 -7 -7 -7 -7 -7 -7 -8 -8 -8 -8 -9 -9 -10 -10 -11 -11 -11 -12 -12 -13 -13
-6 -6 -5 -6 -6 -6 -6 -6 -6 -6 -6 -7 -7 -6 -6 -6 -6 -6 -7 -7 -7 -7 -7 -7 -8 -8 -8 -8 -8 -8 -9 -9 -10 -10 -11 -11 -11 -12 -12 -13 -13 -13 -14
-5 -6 -6 -6 -6 -6 -6 -6 -6 -6 -6 -6 -6 -6 -6 -6 -6 -6 -7 -7 -7 -7 -8 -8 -8 -8 -8 -9 -9 -9 -9 -10 -10 -10 -11 -11 -12 -13 -13 -14 -14 -14 -15
-5 -5 -5 -5 -6 -6 -6 -6 -6 -6 -6 -6 -6 -6 -6 -7 -6 -6 -7 -8 -8 -8 -8 -8 -9 -9 -9 -9 -10 -10 -11 -11 -11 -12 -12 -13 -13 -14 -14 -15 -15 -16 -16
-5 -6 -6 -6 -6 -6 -6 -6 -7 -7 -7 -7 -7 -7 -7 -8 -7 -8 -8 -8 -8 -9 -9 -10 -10 -10 -11 -11 -12 -12 -12 -12 -13 -13 -14 -14 -14 -15 -16 -16 -16 -17 -17
-6 -7 -7 -7 -6 -7 -7 -7 -8 -8 -8 -8 -8 -8 -9 -9 -9 -9 -9 -10 -10 -10 -10 -11 -11 -12 -12 -12 -13 -13 -13 -14 -14 -15 -15 -15 -16 -16 -17 -17 -18 -18 -18
-8 -7 -7 -7 -7 -8 -8 -8 -8 -9 -9 -9 -9 -9 -10 -10 -10 -10 -11 -11 -11 -12 -12 -12 -12 -13 -14 -14 -14 -14 -15 -15 -15 -16 -16 -17 -17 -17 -18 -18 -19 -19 -19
-8 -8 -8 -8 -9 -9 -9 -9 -9 -10 -10 -10 -10 -10 -11 -11 -11 -12 -12 -12 -13 -13 -13 -14 -14 -14 -15 -15 -15 -16 -16 -17 -17 -17 -18 -18 -18 -19 -19 -20 -20 -20 -20
-10 -10 -10 -10 -10 -10 -10 -10 -10 -10 -11 -11 -11 -12 -12 -12 -13 -13 -13 -13 -14 -15 -15 -15 -16 -16 -17 -17 -17 -18 -18 -18 -18 -19 -19 -20 -20 -20 -20 -21 -21 -21 -21
-12 -12 -11 -11 -11 -11 -11 -11 -11 -12 -12 -12 -12 -12 -13 -13 -13 -14 -14 -15 -16 -16 -17 -17 -17 -18 -18 -19 -19 -19 -19 -19 -20 -20 -20 -21 -21 -21 -21 -21 -22 -22 -22
Height
1480 1481 1481 1480 1480 1480 1479 1479 1480 1480 1480 1480 1481 1481 1482 1483 1484 1486 1487 1489 1492 1493 1492 1494 1497 1500 1502 1503 1504 1506 1510 1514 1518 1517 1519 1525 1527 1530 1533 1535 1537 1539 1538
1479 1479 1479 1477 1475 1474 1473 1473 1473 1472 1472 1471 1472 1471 1471 1473 1474 1475 1477 1480 1482 1481 1482 1485 1488 1490 1490 1493 1494 1497 1500 1505 1514 1514 1515 1518 1522 1525 1528 1530 1532 1533 1535
1474 1473 1473 1472 1470 1468 1467 1466 1466 1464 1464 1464 1464 1464 1463 1463 1464 1467 1468 1470 1473 1475 1476 1478 1478 1478 1481 1482 1483 1487 1493 1498 1504 1509 1510 1513 1516 1518 1520 1523 1526 1526 1529
1469 1467 1466 1465 1463 1461 1460 1458 1457 1457 1456 1455 1455 1456 1456 1456 1457 1459 1460 1461 1464 1466 1467 1468 1468 1470 1471 1473 1476 1480 1486 1491 1499 1504 1506 1507 1510 1513 1515 1517 1518 1520 1521
1462 1460 1458 1457 1455 1453 1452 1450 1448 1448 1447 1447 1447 1447 1448 1449 1451 1453 1454 1453 1455 1457 1458 1458 1460 1463 1465 1468 1470 1473 1480 1488 1493 1497 1500 1502 1505 1506 1507 1511 1513 1513 1514
1453 1451 1450 1446 1444 1443 1442 1441 1439 1439 1439 1439 1439 1440 1440 1440 1443 1446 1448 1448 1448 1449 1449 1450 1452 1454 1457 1461 1465 1470 1479 1485 1489 1492 1494 1497 1500 1502 1502 1505 1506 1506 1505
1445 1442 1440 1438 1435 1433 1432 1430 1428 1428 1429 1430 1430 1431 1432 1434 1436 1438 1440 1440 1441 1441 1441 1443 1444 1445 1449 1454 1460 1470 1477 1480 1483 1486 1489 1490 1492 1493 1496 1497 1498 1497 1497
1438 1434 1432 1429 1427 1425 1423 1422 1421 1421 1420 1421 1421 1423 1424 1427 1429 1431 1431 1432 1432 1432 1434 1435 1438 1440 1444 1450 1458 1466 1472 1476 1478 1480 1483 1483 1485 1486 1487 1490 1492 1491 1491
1431 1428 1425 1421 1418 1416 1414 1412 1411 1411 1413 1414 1415 1415 1416 1419 1421 1422 1424 1424 1424 1425 1426 1429 1433 1437 1442 1446 1455 1462 1467 1470 1473 1476 1478 1479 1478 1479 1480 1484 1484 1485 1484
1425 1422 1419 1416 1413 1410 1407 1406 1405 1404 1402 1404 1407 1409 1410 1412 1413 1415 1414 1417 1417 1419 1421 1423 1427 1432 1438 1445 1453 1458 1463 1466 1467 1471 1472 1473 1474 1474 1475 1476 1478 1478 1479
1420 1417 1413 1411 1408 1405 1400 1399 1398 1399 1397 1397 1400 1402 1403 1405 1406 1410 1408 1412 1412 1414 1416 1420 1424 1431 1439 1445 1451 1456 1460 1462 1464 1465 1466 1467 1468 1469 1470 1470 1471 1472 1472
1415 1411 1406 1404 1403 1401 1398 1391 1392 1394 1393 1394 1394 1395 1399 1399 1400 1403 1403 1404 1408 1411 1413 1417 1423 1430 1437 1444 1449 1453 1454 1458 1460 1461 1461 1461 1461 1463 1463 1464 1465 1465 1465
1410 1405 1402 1400 1398 1395 1395 1389 1387 1389 1387 1389 1392 1391 1394 1395 1396 1398 1403 1405 1406 1407 1411 1414 1421 1428 1437 1443 1446 1448 1452 1453 1455 1456 1456 1455 1456 1457 1457 1458 1459 1460 1459
1405 1399 1397 1395 1397 1395 1393 1389 1387 1387 1386 1385 1386 1389 1391 1392 1394 1395 1401 1406 1406 1409 1409 1414 1421 1427 1433 1438 1442 1447 1448 1448 1449 1451 1451 1449 1449 1450 1450 1451 1452 1453 1452
1401 1396 1394 1393 1393 1392 1392 1389 1389 1389 1386 1385 1386 1385 1389 1392 1393 1396 1399 1403 1405 1408 1412 1415 1418 1424 1430 1433 1435 1438 1441 1443 1444 1445 1445 1444 1444 1445 1445 1445 1446 1446 1445
1398 1396 1395 1392 1391 1390 1389 1389 1390 1392 1392 1387 1385 1387 1388 1391 1395 1396 1400 1402 1404 1409 1414 1415 1416 1421 1426 1431 1434 1435 1435 1436 1437 1440 1440 1438 1439 1440 1440 1441 1439 1439 1439
1394 1394 1395 1392 1388 1389 1390 1391 1391 1393 1395 1394 1390 1389 1389 1393 1397 1399 1402 1402 1406 1410 1414 1416 1417 1419 1422 1426 1429 1429 1429 1429 1430 1432 1433 1433 1433 1433 1434 1434 1433 1432 1431
1394 1394 1392 1396 1388 1389 1392 1394 1395 1396 1396 1398 1397 1392 1393 1396 1399 1402 1404 1402 1407 1409 1412 1415 1417 1419 1418 1419 1421 1423 1424 1424 1425 1426 1427 1426 1425 1426 1426 1426 1426 1426 1424
1393 1395 1393 1393 1389 1391 1393 1393 1397 1399 1398 1401 1399 1396 1396 1400 1403 1403 1401 1403 1406 1409 1411 1413 1414 1416 1417 1417 1417 1418 1419 1419 1419 1419 1419 1419 1419 1419 1419 1419 1419 1419 1417
1392 1394 1394 1394 1392 1392 1395 1396 1397 1398 1399 1401 1400 1397 1399 1402 1402 1402 1401 1403 1406 1407 1409 1410 1410 1412 1413 1413 1414 1414 1414 1414 1413 1414 1414 1413 1413 1413 1413 1412 1412 1412 1411
1390 1391 1393 1394 1394 1395 1396 1397 1398 1399 1401 1401 1399 1399 1401 1402 1402 1402 1402 1403 1405 1405 1405 1407 1407 1408 1408 1408 1408 1408 1408 1407 1407 1407 1406 1406 1406 1407 1406 1405 1405 1405 1405
1389 1390 1390 1392 1393 1395 1396 1398 1399 1400 1400 1400 1400 1400 1401 1402 1401 1402 1402 1402 1403 1402 1401 1402 1402 1402 1402 1402 1401 1401 1401 1400 1399 1399 1399 1399 1400 1399 1399 1399 1399 1399 1399
1389 1389 1389 1390 1393 1394 1397 1398 1398 1398 1398 1399 1400 1401 1401 1400 1400 1400 1400 1399 1399 1398 1397 1396 1396 1397 1396 1396 1395 1395 1394 1393 1392 1393 1393 1393 1393 1392 1392 1392 1392 1392 1392
1389 1390 1389 1390 1392 1394 1396 1396 1396 1397 1397 1398 1399 1399 1399 1398 1397 1396 1396 1395 1394 1394 1393 1392 1390 1390 1390 1389 1388 1388 1387 1386 1386 1385 1385 1385 1385 1385 1386 1386 1386 1386 1387
1390 1390 1390 1391 1392 1393 1394 1394 1394 1395 1396 1396 1396 1396 1395 1394 1393 1392 1391 1390 1390 1389 1388 1386 1384 1382 1382 1382 1382 1381 1380 1379 1378 1378 1378 1378 1378 1378 1379 1379 1380 1380 1380
1391 1392 1392 1392 1393 1393 1393 1393 1393 1394 1394 1393 1392 1391 1390 1388 1387 1386 1384 1384 1383 1382 1381 1379 1377 1376 1375 1375 1374 1373 1373 1372 1371 1371 1370 1370 1371 1371 1372 1373 1373 1373 1374
Wind_Speed
6 10 14 17 19 22 24 26 29 30 32 34 33 33 35 37 41 44 50 51 46 51 52 47 47 43 44 48 46 43 41 34 35 31 29 28 21 21 22 21 21 20 17
10 17 19 21 22 24 25 26 27 29 31 32 32 31 32 35 39 39 44 47 47 53 48 46 47 48 47 47 47 43 41 34 36 30 30 27 23 20 20 21 20 20 18
22 23 21 24 26 28 29 30 31 30 33 34 33 32 32 33 35 35 38 45 44 46 45 52 46 49 50 48 47 43 34 35 33 29 27 25 21 22 23 21 21 17 20
28 28 29 28 30 31 31 31 33 34 35 34 33 32 31 32 33 34 35 41 42 47 46 45 49 49 48 46 42 37 34 33 31 27 23 20 21 21 21 22 19 21 20
27 31 32 30 31 34 35 34 35 36 37 36 33 32 32 33 33 35 35 39 38 41 45 45 45 43 41 37 37 37 30 30 32 25 21 19 19 23 23 17 22 19 21
33 34 32 32 31 34 37 38 38 38 36 34 33 32 33 34 32 34 34 39 38 39 41 39 40 40 35 33 33 24 26 34 26 21 20 17 19 17 19 21 23 21 23
34 33 31 31 31 30 31 32 33 33 32 32 30 29 30 32 31 32 35 37 37 38 39 38 38 36 32 33 27 28 28 24 19 14 14 14 19 23 20 22 23 25 26
30 30 29 28 28 29 29 29 29 29 30 29 28 27 28 27 29 30 33 35 35 35 35 35 33 32 29 29 32 33 32 22 14 11 17 19 22 21 27 26 27 28 26
23 25 27 28 29 29 29 27 26 26 27 27 27 27 26 25 28 28 32 32 31 30 31 29 26 25 25 29 36 36 29 19 17 17 16 20 23 26 24 22 25 24 25
23 22 23 24 25 25 24 24 24 23 22 23 24 23 24 25 27 27 27 27 27 28 26 24 22 22 28 34 38 32 27 17 16 16 12 18 20 20 20 22 22 24 21
24 24 23 23 22 21 20 20 20 21 20 19 19 19 21 22 23 22 22 21 23 23 24 26 26 26 32 34 32 27 22 17 14 12 15 20 20 20 22 24 25 22 20
24 23 22 21 20 20 18 16 15 15 14 14 14 16 17 17 17 15 15 13 13 16 21 25 27 29 32 32 27 18 16 21 20 21 21 23 21 20 19 19 18 17 18
24 22 20 20 18 16 15 12 11 11 9 10 12 12 12 11 9 9 15 15 9 11 15 20 26 28 31 28 21 25 25 18 19 23 25 25 21 19 18 17 18 18 19
22 20 18 16 14 12 10 8 7 6 7 8 8 7 7 7 7 10 16 13 7 7 10 17 21 25 25 28 28 26 21 24 27 29 28 23 22 20 19 19 20 21 24
19 16 13 10 8 6 4 4 4 7 8 7 8 9 6 5 7 11 15 13 9 9 14 19 22 22 24 27 28 26 24 26 26 26 24 22 21 21 22 22 22 25 25
13 12 10 7 6 6 7 9 10 8 9 12 14 12 13 12 12 14 15 14 11 12 15 18 19 19 20 20 22 24 23 23 23 23 20 18 19 21 23 25 25 25 24
11 11 8 7 9 10 10 11 13 11 10 9 12 13 12 11 12 13 13 13 11 11 12 13 13 14 15 17 19 20 21 19 19 19 20 21 21 22 25 25 24 24 25
9 8 7 7 9 10 9 9 9 9 9 9 9 10 11 10 10 12 12 12 14 15 13 11 12 13 14 16 17 18 18 18 18 19 20 19 19 20 21 22 23 23 23
9 8 8 9 10 10 9 9 8 7 7 6 6 6 7 6 6 7 9 8 9 9 9 10 12 14 13 12 12 12 13 14 15 16 17 18 19 20 21 22 22 22 22
9 8 8 8 9 9 7 6 6 6 7 7 7 9 9 8 7 7 7 8 9 9 8 8 7 8 9 10 11 12 14 15 16 18 18 19 20 21 21 21 21 20 20
12 10 9 8 8 7 6 5 6 8 7 6 6 6 5 4 4 4 3 3 4 5 6 7 8 9 11 12 14 15 16 17 17 18 19 19 20 20 20 20 21 20 19
13 12 11 9 7 7 7 7 7 6 5 4 3 2 2 1 1 1 2 3 5 6 8 9 11 12 14 15 16 17 17 18 18 18 18 19 19 20 21 21 20 19 19
11 10 10 9 9 9 9 8 7 6 4 3 1 1 2 3 5 6 7 8 10 11 12 13 15 16 16 17 18 19 19 19 20 20 20 20 20 20 20 20 19 19 19
10 10 9 10 9 9 8 7 5 3 1 1 3 4 6 7 8 10 11 13 14 16 17 18 18 19 20 20 20 21 21 21 20 20 20 20 20 20 20 19 18 18 19
9 9 9 9 9 7 6 4 2 1 3 4 6 8 9 11 13 14 16 17 18 18 19 19 19 20 20 20 20 20 20 20 20 20 19 19 19 19 20 19 18 19 19
7 7 7 6 5 3 2 2 4 5 7 9 11 13 14 16 17 18 19 19 20 20 20 20 20 19 19 19 19 19 19 19 19 19 20 20 20 20 20 19 19 20 21
Wind_Direction
300 296 282 273 264 262 262 262 264 267 268 269 269 266 261 256 245 248 248 246 249 251 249 253 247 251 249 250 243 238 232 238 242 230 227 217 212 214 218 225 231 242 247
317 323 301 289 278 271 270 271 266 266 270 269 270 267 261 255 248 250 247 248 250 252 248 248 253 252 246 245 243 241 234 229 236 238 220 206 213 215 221 226 234 240 253
305 304 294 283 279 275 275 275 271 267 267 267 268 267 263 255 248 247 248 248 248 255 250 261 252 248 244 242 240 237 224 220 229 231 214 209 213 216 217 226 236 243 253
290 293 294 284 273 275 277 274 272 269 268 266 268 270 264 256 250 247 250 249 249 251 255 254 249 249 246 243 239 226 215 214 223 211 210 214 217 217 222 231 239 249 256
287 291 289 285 278 278 275 275 277 272 269 268 267 265 262 255 250 249 251 251 252 255 256 250 250 251 246 246 234 213 216 211 206 207 216 212 215 221 231 249 248 253 264
288 285 285 284 281 276 275 276 274 273 270 267 268 266 261 255 252 249 251 256 255 255 254 250 253 249 246 237 227 215 217 206 207 218 216 219 230 237 245 244 253 262 277
289 290 288 285 282 281 279 275 273 273 272 270 269 265 262 256 252 251 254 254 256 256 253 252 248 245 238 223 197 203 199 204 214 216 219 245 249 255 241 243 250 259 268
287 287 286 283 279 278 277 277 277 274 272 272 271 268 264 255 250 250 255 258 255 255 254 251 247 245 227 204 192 194 205 209 205 250 263 273 269 244 246 253 262 268 274
294 292 290 284 281 280 277 272 267 268 271 272 272 269 264 256 253 252 257 258 254 252 250 248 240 230 210 194 199 202 210 216 243 251 273 277 271 266 271 267 266 269 276
302 297 292 291 288 282 277 272 266 260 258 259 263 264 259 255 254 255 259 256 250 247 243 236 221 217 201 203 204 214 214 225 249 266 283 287 280 277 271 265 267 269 276
305 305 302 296 289 281 274 269 266 261 258 256 259 258 255 254 254 260 259 256 249 245 238 222 219 200 204 209 212 214 222 238 255 284 301 296 275 266 260 262 260 263 272
303 305 303 297 288 283 276 268 263 260 257 257 252 251 252 253 252 254 242 246 246 241 235 226 217 199 206 206 214 214 243 256 280 284 289 294 276 271 268 265 262 265 267
304 303 301 296 288 280 273 267 257 242 236 239 245 244 247 245 239 206 196 227 233 230 232 226 209 193 198 212 218 233 247 260 272 286 290 290 281 276 272 259 271 270 275
302 301 298 291 284 275 263 254 239 223 212 208 218 229 235 226 210 187 192 208 223 203 190 191 191 194 201 212 232 245 245 254 267 282 287 280 274 269 266 271 274 269 271
303 301 290 276 270 248 217 163 164 176 160 156 154 141 136 147 162 178 184 186 177 171 177 184 188 197 211 224 234 243 252 263 272 280 273 271 271 266 264 263 258 269 275
290 285 272 251 215 178 162 143 125 126 129 131 129 126 128 127 138 152 171 174 172 177 191 194 198 211 224 236 247 257 261 269 273 272 268 267 266 258 256 262 269 273 273
273 267 245 191 159 146 144 144 138 135 129 117 122 122 121 133 145 151 165 168 175 186 204 210 219 230 240 249 258 264 268 268 266 264 263 262 262 261 263 266 266 268 274
245 228 201 191 151 141 135 134 129 134 135 127 113 114 118 125 131 148 160 163 180 204 221 230 242 249 254 258 263 263 264 263 262 262 264 266 266 264 264 265 269 271 273
217 207 181 167 140 142 145 136 145 146 141 142 139 128 130 145 153 156 156 175 197 218 233 243 252 267 273 271 268 266 267 267 267 267 269 268 267 266 268 269 268 269 272
199 193 173 165 159 148 149 152 151 148 156 147 127 114 118 132 144 150 159 185 209 223 237 249 265 276 279 278 276 275 274 275 275 274 272 272 272 271 270 269 270 271 272
185 175 174 170 159 157 168 181 174 166 168 158 142 130 125 124 118 123 136 173 215 231 247 262 270 275 279 280 281 280 279 278 276 273 273 272 271 273 273 272 271 270 268
170 164 163 171 178 191 192 185 178 177 174 163 143 124 121 120 72 335 307 292 287 286 287 286 286 286 285 284 283 282 281 279 276 275 273 271 272 273 273 272 270 268 266
173 176 174 179 183 183 186 183 176 168 161 152 150 335 324 325 322 316 310 309 304 303 300 296 293 291 290 289 288 284 281 278 277 276 276 274 272 270 269 267 266 264 264
178 177 174 173 172 171 172 167 161 160 153 302 304 310 312 313 310 308 306 303 301 298 295 295 294 291 290 288 285 282 280 278 276 276 274 272 270 267 265 264 263 264 264
171 164 159 160 163 165 168 167 174 249 279 290 298 299 302 303 303 303 302 299 297 295 293 292 291 290 289 287 284 282 280 279 278 275 271 269 268 267 268 267 266 265 266
149 156 164 164 170 176 208 257 279 288 296 301 303 304 304 304 301 298 297 296 295 293 292 293 293 292 291 290 288 285 282 279 277 275 273 272 271 270 270 269 266 266 266